Location: Phoenix
(33.4480°N, 112.0730°W)
Time: 22:00:54
(UTC-07:00)

ISS - All Passes

Search period start: 28 September 2016 00:00
Search period end: 08 October 2016 00:00
Orbit: 400 x 410 km, 51.6° (Epoch: 29 September)

Date Brightness Start Highest point End Pass type
(mag) Time Alt. Az. Time Alt. Az. Time Alt. Az.
28 Sep - 02:34:33 10° NNW 02:37:24 27° NE 02:40:15 10° E night (unlit)
28 Sep - 04:11:11 10° WNW 04:13:47 22° SW 04:16:23 10° S night (unlit)
28 Sep - 19:11:11 10° SW 19:14:25 78° SE 19:17:40 10° NE visible
28 Sep - 20:49:56 10° NW 20:51:15 12° NNW 20:52:34 10° N visible
29 Sep - 01:43:03 10° N 01:45:09 16° NNE 01:47:14 10° ENE night (unlit)
29 Sep - 03:18:38 10° WNW 03:21:49 48° SW 03:24:59 10° SSE night (unlit)
29 Sep - 18:19:27 10° SSW 18:22:24 33° SE 18:25:21 10° ENE daylight
29 Sep - 19:56:30 10° W 19:58:56 19° NW 20:01:23 10° NNE visible
30 Sep - 02:26:28 10° NW 02:29:45 72° NE 02:33:01 10° SE night (unlit)
30 Sep - 17:28:26 10° SSE 17:30:26 15° SE 17:32:28 10° E daylight
30 Sep - 19:03:41 10° WSW 19:06:41 35° NW 19:09:42 10° NNE visible
01 Oct - 01:34:33 10° NNW 01:37:35 33° NE 01:40:37 10° ESE night (unlit)
01 Oct - 03:11:40 10° W 03:13:51 17° SW 03:16:02 10° S night (unlit)
01 Oct - 18:11:18 10° SW 18:14:31 77° NW 18:17:46 10° NE daylight
02 Oct - 00:42:53 10° NNW 00:45:19 19° NNE 00:47:45 10° E night (unlit)
02 Oct - 02:18:51 10° WNW 02:21:53 35° SW 02:24:54 10° SSE night (unlit)
02 Oct - 17:19:20 10° SSW 17:22:26 45° SE 17:25:34 10° ENE daylight
02 Oct - 18:56:58 10° WNW 18:59:05 16° NNW 19:01:12 10° N visible
02 Oct - 23:51:43 10° N 23:52:57 12° NNE 23:54:10 10° NE night (unlit)
03 Oct - 01:26:32 10° NW 01:29:48 83° SW 01:33:05 10° SE night (unlit)
03 Oct - 16:27:58 10° S 16:30:25 20° SE 16:32:54 10° ENE daylight
03 Oct - 18:03:56 10° W 18:06:46 27° NW 18:09:37 10° NNE daylight
04 Oct - 00:34:30 10° NNW 00:37:38 43° NE 00:40:47 10° ESE night (unlit)
04 Oct - 02:12:18 10° W 02:13:48 13° SW 02:15:19 10° SSW night (unlit)
04 Oct - 17:11:21 10° WSW 17:14:32 56° NW 17:17:44 10° NE daylight
04 Oct - 23:42:41 10° NNW 23:45:22 23° NE 23:48:03 10° E night (unlit)
05 Oct - 01:19:01 10° WNW 01:21:49 26° SW 01:24:37 10° S night (unlit)
05 Oct - 16:19:11 10° SW 16:22:23 62° SE 16:25:35 10° NE daylight
05 Oct - 17:57:26 10° WNW 17:59:08 13° NNW 18:00:50 10° N daylight
05 Oct - 22:51:13 10° N 22:53:00 14° NNE 22:54:46 10° ENE night (unlit)
06 Oct - 00:26:30 10° NW 00:29:45 61° SW 00:32:58 10° SE night (unlit)
06 Oct - 15:27:31 10° S 15:30:18 27° SE 15:33:05 10° ENE daylight
06 Oct - 17:04:07 10° W 17:06:45 22° NW 17:09:23 10° NNE daylight
06 Oct - 23:34:21 10° NW 23:37:34 58° NE 23:40:48 10° ESE night (unlit)
07 Oct - 14:36:47 10° SSE 14:38:17 13° SE 14:39:46 10° E daylight
07 Oct - 16:11:21 10° WSW 16:14:26 42° NW 16:17:33 10° NNE daylight
07 Oct - 22:42:25 10° NNW 22:45:18 28° NE 22:48:11 10° E night (unlit)
